AO-07 1 07530U 74089B 21098.36693233 -.00000039 00000-0 42848-4 0 9991 2 07530 101.8478 72.9618 0012310 155.2296 4.8251 12.53648206122941 UO-11 1 14781U 84021B 21098.50601292 .00000138 00000-0 22914-4 0 9995 2 14781 97.5932 101.7926 0007364 319.9311 40.1359 14.83268110996562 LO-19 1 20442U 90005G 21098.31387485 -.00000006 00000-0 14484-4 0 9997 2 20442 98.7340 53.1698 0012028 12.8782 347.2706 14.32981803630780 HUBBLE 1 20580U 90037B 21098.51148848 .00000538 00000-0 21610-4 0 9993 2 20580 28.4689 167.8527 0002832 34.1223 88.5737 15.09606704500506 MET-2/21 1 22782U 93055A 21098.24519759 .00000010 00000-0 -44545-5 0 9994 2 22782 82.5522 359.6378 0023327 126.3992 352.7602 13.83836157393811 AO-27 1 22825U 93061C 21098.48437115 .00000004 00000-0 19448-4 0 9995 2 22825 98.9225 114.3665 0007547 234.1076 125.9405 14.30110824435987 IO-26 1 22826U 93061D 21098.47133062 .00000010 00000-0 21933-4 0 9998 2 22826 98.9167 114.2685 0008238 220.7112 139.3455 14.30449065436228 FO-29 1 24278U 96046B 21098.20275544 -.00000016 00000-0 22249-4 0 9998 2 24278 98.5720 175.4685 0349827 331.8113 26.4472 13.53102300216748 NOAA-15 1 25338U 98030A 21098.83338729 .00000048 00000-0 38691-4 0 9997 2 25338 98.6896 127.9567 0011452 121.1108 239.1197 14.26021119191328 GO-32 1 25397U 98043D 21098.68931046 -.00000017 00000-0 11935-4 0 9999 2 25397 98.7647 44.4570 0000415 341.6036 18.5127 14.23705081181786 ISS 1 25544U 98067A 21098.75017721 .00001683 00000-0 38859-4 0 9995 2 25544 51.6453 326.1685 0002756 198.2244 277.4836 15.48875384277834 NO-44 1 26931U 01043C 21098.40690353 -.00000016 00000-0 25573-4 0 9993 2 26931 67.0495 101.2117 0007329 265.2641 94.7623 14.30612953 19212 SO-50 1 27607U 02058C 21098.23057340 .00000009 00000-0 21658-4 0 9996 2 27607 64.5557 193.0771 0033220 48.2934 312.1002 14.75731707984196 CO-55 1 27844U 03031E 21098.47996663 .00000065 00000-0 49063-4 0 9999 2 27844 98.6826 107.7478 0008685 283.1122 76.9086 14.22299481922030 CO-57 1 27848U 03031J 21097.95978319 .00000053 00000-0 43795-4 0 9996 2 27848 98.6884 107.8026 0008670 299.5096 60.5217 14.21877511921795 RS-22 1 27939U 03042A 21098.80971196 .00000127 00000-0 31363-4 0 9990 2 27939 98.1282 236.4372 0014037 136.7100 223.5211 14.66965777937319 NOAA-18 1 28654U 05018A 21098.25306645 .00000105 00000-0 81165-4 0 9991 2 28654 99.0006 162.8185 0015296 119.1690 241.1014 14.12595767818537 CO-58 1 28895U 05043F 21098.84438632 .00000154 00000-0 38419-4 0 9991 2 28895 98.0466 233.6484 0018022 71.8981 288.4183 14.63889824824050 Falconsat-3 1 30776U 07006E 21098.43552072 .00004919 00000-0 12085-3 0 9996 2 30776 35.4336 190.0096 0002578 327.8618 32.1952 15.40119573782309 CO-65 1 32785U 08021C 21098.42966970 .00000338 00000-0 41874-4 0 9991 2 32785 97.6059 80.0146 0011680 231.3423 128.6750 14.88676785701823 AAUSAT2 1 32788U 08021F 21098.43756726 .00000242 00000-0 26812-4 0 9990 2 32788 97.5038 96.0419 0012615 138.9805 221.2367 14.95480556703493 DO-64 1 32789U 08021G 21098.31811930 .00002166 00000-0 14172-3 0 9999 2 32789 97.3840 136.3714 0012471 31.8713 328.3268 15.08718024706253 CO-66 1 32791U 08021J 21098.51776051 .00000528 00000-0 58272-4 0 9998 2 32791 97.5672 86.0772 0012712 192.7818 167.3081 14.91339413702439 RS-30 1 32953U 08025A 21098.69044736 .00000028 00000-0 12906-3 0 9997 2 32953 82.4988 94.3178 0020344 126.6325 233.6628 12.43101136584316 PRISM 1 33493U 09002B 21098.37438623 .00001286 00000-0 11550-3 0 9991 2 33493 98.1827 57.5750 0015540 152.0355 208.1704 14.97548981663838 NOAA-19 1 33591U 09005A 21098.77625736 .00000051 00000-0 52966-4 0 9996 2 33591 99.1893 117.7366 0013365 331.5413 28.5026 14.12459366627088 SRMSAT 1 37841U 11058D 21098.81986427 .00000305 00000-0 22600-4 0 9995 2 37841 19.9735 1.9439 0011803 248.2067 170.1911 14.10689973490019 HRBE 1 37855U 11061F 21098.46949512 .00001697 00000-0 89221-4 0 9996 2 37855 101.7187 345.5942 0167466 278.8792 79.3494 15.07426358515637 RS-40 1 38735U 12041C 21098.54442786 .00000022 00000-0 91639-4 0 9990 2 38735 82.4803 176.6769 0016167 235.3688 124.5858 12.42582508394502 ZACUBE-1 1 39417U 13066B 21098.41036754 .00000378 00000-0 53212-4 0 9995 2 39417 97.5890 86.3836 0059533 32.1020 328.3797 14.81469095398704 GOMX-1 1 39430U 13066Q 21098.74507953 .00000321 00000-0 67002-4 0 9990 2 39430 97.8117 25.8223 0150402 335.0342 24.3659 14.59575675392870 LO-74 1 39440U 13066AA 21097.89168269 .00000281 00000-0 45483-4 0 9993 2 39440 97.6696 70.7481 0081348 104.1600 256.8666 14.76197814397217 AO-73 1 39444U 13066AE 21098.36965693 .00000469 00000-0 63236-4 0 9990 2 39444 97.5803 88.6947 0058372 23.1329 337.2493 14.82366783397058 SPROUT 1 39770U 14029E 21098.55873054 .00001114 00000-0 12650-3 0 9993 2 39770 97.9075 209.9325 0010301 79.8820 280.3552 14.88299947372945 DTUSAT-2 1 40030U 14033W 21098.73368946 .00000356 00000-0 43921-4 0 9991 2 40030 97.9142 26.0067 0013040 48.7958 311.4380 14.88939477369458 EO-80 1 40032U 14033Y 21098.76206596 .00000339 00000-0 42081-4 0 9995 2 40032 97.9148 26.0406 0012967 49.5987 310.6359 14.88894938369449 HODOYOSHI-1 1 40299U 14070B 21098.73609837 .00000750 00000-0 33207-4 0 9990 2 40299 97.2905 174.1930 0011390 229.2884 229.7087 15.24587176356793 FIREBIRD FU3 1 40377U 15003B 21098.15037048 .00003443 00000-0 12818-3 0 9995 2 40377 99.0873 224.7356 0119366 48.8752 312.2708 15.21979411342099 FIREBIRD FU4 1 40378U 15003C 21098.78648269 .00002972 00000-0 11103-3 0 9990 2 40378 99.0880 225.6329 0119417 46.5749 314.5345 15.22031305342203 NO-84 1 40654U 15025D 21097.37308525 .00017493 00000-0 14527-3 0 2522 2 40654 54.9843 16.1498 0083271 234.8023 124.5188 15.65837630214860 XW-2A 1 40903U 15049E 21098.75622782 .00002878 00000-0 63248-4 0 9996 2 40903 97.2446 153.4417 0010580 268.4676 231.0771 15.44797451312035 XW-2C 1 40906U 15049H 21098.75781260 .00000703 00000-0 39323-4 0 9998 2 40906 97.4867 101.9892 0016364 71.3715 14.4639 15.16599472307002 XW-2D 1 40907U 15049J 21098.76634220 .00000838 00000-0 45823-4 0 9994 2 40907 97.4857 101.7681 0015639 68.2230 16.9481 15.16902105307033 LILACSAT-2 1 40908U 15049K 21098.70687995 .00000359 00000-0 23104-4 0 9992 2 40908 97.5045 99.6542 0017507 81.2260 6.1268 15.14356005306672 XW-2E 1 40909U 15049L 21098.76657618 .00001388 00000-0 68848-4 0 9995 2 40909 97.4684 105.6892 0014846 57.2597 29.2163 15.19300728307358 XW-2F 1 40910U 15049M 21098.74687127 .00001472 00000-0 73859-4 0 9995 2 40910 97.4744 104.7443 0016084 57.1766 28.0707 15.18804081307140 XW-2B 1 40911U 15049N 21098.76544465 .00000806 00000-0 44308-4 0 9992 2 40911 97.4863 102.4577 0015589 69.3601 16.3678 15.16820467306924 DCBB 1 40912U 15049P 21098.72860622 .00001723 00000-0 79943-4 0 9997 2 40912 97.4475 109.0800 0015400 33.0491 54.5387 15.21312344307594 TW-1A 1 40928U 15051D 21098.73652685 .00004321 00000-0 92969-4 0 9996 2 40928 97.0838 125.3250 0009622 176.3095 274.5667 15.45114688310923 IO-86 1 40931U 15052B 21096.27560241 .00000688 00000-0 67753-5 0 9990 2 40931 5.9971 47.1236 0012603 98.1150 262.0629 14.76669016298618 ATHENOXAT-1 1 41168U 15077C 21098.18289007 .00002695 00000-0 10224-3 0 9999 2 41168 14.9868 57.5477 0011298 274.2728 194.5666 15.15427411294100 ChubuSat-2 1 41338U 16012B 21098.81920463 .00000455 00000-0 28466-4 0 9996 2 41338 31.0029 268.6857 0013570 164.1610 195.9451 15.00486215282135 ChubuSat-3 1 41339U 16012C 21098.78260720 .00000423 00000-0 25879-4 0 9996 2 41339 31.0117 266.2194 0013107 171.3937 188.6920 15.00637604282129 Horyu-4 1 41340U 16012D 21098.76745863 .00000701 00000-0 45798-4 0 9993 2 41340 31.0046 250.7369 0013753 201.5510 158.4548 15.01818949282309 e-st@r-II 1 41459U 16025D 21098.80546404 .00001230 00000-0 64684-4 0 9996 2 41459 98.1289 230.9167 0159653 297.5014 61.0052 15.07698573271923 AAUSAT4 1 41460U 16025E 21098.37679493 .00002082 00000-0 10161-3 0 9991 2 41460 98.1273 233.9942 0147596 283.7589 74.7249 15.10573314272131 LO-87 1 41557U 16033B 21098.78340719 .00001916 00000-0 70220-4 0 9996 2 41557 97.3906 193.1370 0014592 118.8101 358.0623 15.29149373270889 NuSat2 1 41558U 16033C 21098.75508148 .00001935 00000-0 66524-4 0 9999 2 41558 97.4001 196.6099 0013666 113.5341 38.8185 15.31246297271054 Lapan A3 1 41603U 16040E 21098.75293686 .00000086 00000-0 70741-5 0 9999 2 41603 97.2655 148.2985 0011688 244.7670 249.7570 15.19994031265998 Pratham 1 41783U 16059A 21098.36784871 .00000079 00000-0 24231-4 0 9990 2 41783 97.9730 150.8453 0034927 106.5686 253.9357 14.63125663242002 TY-1 1 41844U 16066D 21098.73889652 .00001216 00000-0 50627-4 0 9992 2 41844 97.4019 109.6782 0015763 29.7586 57.0643 15.25586490245275 CAS-2T 1 41847U 16066G 21098.62575108 .00000130 00000-0 28995-4 0 9998 2 41847 98.6092 157.4376 0366370 68.8913 295.1027 14.38171297231840 EO-88 1 42017U 17008BX 21098.75211893 .00002406 00000-0 91266-4 0 9996 2 42017 97.3218 167.5961 0005980 13.4697 346.6701 15.27812418230611 CAS-4B 1 42759U 17034B 21098.79079286 .00000285 00000-0 30535-4 0 9995 2 42759 43.0172 204.0431 0007964 83.7249 57.1193 15.10144734210615 CAS-4A 1 42761U 17034D 21098.78516160 .00000289 00000-0 30732-4 0 9997 2 42761 43.0170 203.1801 0008172 88.0493 50.2985 15.10226098210615 NIUSat 1 42766U 17036B 21098.19406623 .00001542 00000-0 69235-4 0 9994 2 42766 97.2589 146.5845 0016698 66.5844 293.7147 15.22510444210524 Aalto 1 1 42775U 17036L 21098.36254806 .00001334 00000-0 60367-4 0 9993 2 42775 97.2560 147.0285 0015158 65.4113 294.8701 15.22499842210531 URSA MAIOR 1 42776U 17036M 21098.37671268 .00001441 00000-0 64512-4 0 9995 2 42776 97.2573 147.4688 0014945 65.0229 295.2559 15.22746002210555 Max Valier Sat 1 42778U 17036P 21098.22311972 .00001573 00000-0 68893-4 0 9996 2 42778 97.2637 149.1135 0013570 68.3180 291.9501 15.23388393210599 Pegasus 1 42784U 17036V 21098.19641818 .00001904 00000-0 80882-4 0 9994 2 42784 97.2591 149.5179 0013173 71.3033 288.9633 15.24167809210654 NUDATSat 1 42787U 17036Y 21098.81339761 .00002605 00000-0 10399-3 0 9991 2 42787 97.2628 152.2963 0012465 62.9775 297.2730 15.25961334210716 SUCHAI 1 1 42788U 17036Z 21098.62440716 .00002146 00000-0 88895-4 0 9991 2 42788 97.2601 150.8325 0012636 68.1758 292.0823 15.24903305210846 SKCUBE 1 42789U 17036AA 21098.37949123 .00002127 00000-0 88766-4 0 9996 2 42789 97.2594 150.3396 0012554 69.1903 291.0679 15.24664439210719 VZLUSAT 1 1 42790U 17036AB 21098.21627036 .00003050 00000-0 12138-3 0 9992 2 42790 97.2628 151.7073 0011842 66.8673 293.3813 15.25939035210772 VENTA 1 1 42791U 17036AC 21098.09601463 .00002108 00000-0 88110-4 0 9992 2 42791 97.2592 150.0865 0012274 70.5747 289.6816 15.24626899210667 Robusta 1B 1 42792U 17036AD 21098.09652428 .00001950 00000-0 81067-4 0 9998 2 42792 97.2597 150.4177 0012148 70.2609 289.9939 15.24892286210706 D-SAT 1 42794U 17036AF 21098.05243474 .00000331 00000-0 33466-4 0 9995 2 42794 97.4676 121.6645 0127353 101.1013 260.4558 14.91502654206566 TechnoSat 1 42829U 17042E 21098.67173744 .00000238 00000-0 29123-4 0 9992 2 42829 97.4798 331.8758 0014856 25.9484 334.2477 14.91249978203281 QIKCOM-1 1 42983U 98067NF 21098.78298485 .00009201 00000-0 94976-4 0 9998 2 42983 51.6360 253.0634 0003373 87.0935 273.0446 15.65603850196483 AO-91 1 43017U 17073E 21098.53737875 .00000551 00000-0 47677-4 0 9994 2 43017 97.7119 5.2884 0255613 168.1512 192.5873 14.79418755182786 EcAMSat 1 43019U 98067NG 21098.75136439 .00025900 00000-0 16928-3 0 9990 2 43019 51.6376 224.4233 0002430 58.4582 301.6655 15.75649051279184 PICSAT 1 43132U 18004X 21098.80108753 .00001797 00000-0 73562-4 0 9999 2 43132 97.4130 173.9706 0010863 94.2661 265.9818 15.25568497180064 AO-92 1 43137U 18004AC 21098.19621608 .00001587 00000-0 66397-4 0 9990 2 43137 97.4110 172.9419 0010556 98.2855 261.9580 15.25012464179940 TianYi 2 1 43155U 18008A 21098.79561009 .00001296 00000-0 78383-4 0 9993 2 43155 97.4082 165.8416 0016449 204.2702 276.6636 15.12265483177549 Zhou Enlai 1 43156U 18008B 21098.78037660 .00001287 00000-0 78827-4 0 9997 2 43156 97.4130 165.6626 0013855 202.4543 290.9131 15.11859375177486 TianYi 6 1 43158U 18008D 21098.76470745 .00000627 00000-0 40879-4 0 9995 2 43158 97.4067 164.3191 0012342 203.5318 299.4100 15.11306818177414 S-Net D 1 43186U 18014G 21098.77581844 .00000078 00000-0 11805-4 0 9994 2 43186 97.6823 7.6015 0010025 323.6452 36.4087 14.97016959173876 S-Net B 1 43187U 18014H 21098.77571351 .00000080 00000-0 11946-4 0 9996 2 43187 97.6820 7.5704 0010029 323.6719 36.3821 14.97016503173878 S-Net A 1 43188U 18014J 21098.17413926 .00000230 00000-0 25021-4 0 9990 2 43188 97.6824 7.0209 0010039 325.9737 34.0840 14.97015232173788 S-Net C 1 43189U 18014K 21098.77618885 .00000048 00000-0 92109-5 0 9997 2 43189 97.6818 7.5640 0010025 323.5069 36.5469 14.97015290172421 FMN 1 1 43192U 18015A 21098.79237277 .00003482 00000-0 13166-3 0 9995 2 43192 97.4755 233.8873 0015999 125.7075 340.4589 15.27534719176957 Shaonian Xing 1 43199U 18015H 21098.73050284 .00002431 00000-0 93777-4 0 9997 2 43199 97.4542 231.2314 0017154 134.7009 332.8191 15.27164025177002 SurfSat 1 43614U 18070B 21098.25482466 .00005080 00000-0 12138-3 0 9992 2 43614 93.0238 276.8038 0011686 277.3854 82.6073 15.41471044143855 CP-7 DAVE 1 43615U 18070C 21098.71401004 .00004329 00000-0 10438-3 0 9999 2 43615 93.0241 276.9591 0011872 275.0489 84.9411 15.41207502143915 ELFIN-B 1 43616U 18070D 21098.47066558 .00008294 00000-0 18365-3 0 9996 2 43616 93.0198 276.9708 0011857 274.4457 85.5445 15.43720124143970 ELFIN-A 1 43617U 18070E 21098.70936166 .00007681 00000-0 16785-3 0 9997 2 43617 93.0248 277.8507 0011256 269.1811 90.8156 15.44124691144025 STARS-Me Mother 1 43640U 98067PQ 21098.38686370 .00102873 00000-0 41186-3 0 9992 2 43640 51.6276 237.1924 0002950 347.3528 12.7401 15.85717065143134 CubeBel 1 1 43666U 18083E 21098.75946588 .00001287 00000-0 64389-4 0 9999 2 43666 97.4632 127.9896 0016195 56.0369 33.3332 15.19111346135436 Changshagaoxin 1 43669U 18083H 21098.75998716 .00000905 00000-0 47859-4 0 9991 2 43669 97.4534 125.2785 0012152 52.6448 36.7239 15.17937957135319 Ten-Koh 1 43677U 18084G 21097.96361448 .00000233 00000-0 29785-4 0 9991 2 43677 97.9088 220.8668 0014595 266.7202 93.2346 14.90431441132803 PO-101 1 43678U 18084H 21098.76057407 -.00000136 00000-0 -77053-5 0 9994 2 43678 97.9113 223.7261 0008568 284.5892 75.4394 14.91725250133047 IRVINE 01 1 43693U 18088D 21098.81690175 .00004337 00000-0 17199-3 0 9994 2 43693 85.0340 241.2056 0014686 283.0760 76.8844 15.24974583133820 QO-100 1 43700U 18090A 21098.72481486 .00000125 00000-0 00000 0 0 9999 2 43700 0.0194 220.1016 0002617 199.6683 64.1655 1.00262413 8914 Reaktor Hello World 1 43743U 18096AA 21098.80135962 .00001975 00000-0 73644-4 0 9999 2 43743 97.3892 176.8479 0017969 158.5277 201.6720 15.28496931131494 MinXSS-2 1 43758U 18099A 21098.27316504 .00000902 00000-0 85475-4 0 9996 2 43758 97.6716 170.9079 0013901 284.2962 75.6715 14.95974179128025 AO-95 1 43770U 18099N 21098.65433941 .00000243 00000-0 27247-4 0 9998 2 43770 97.6699 170.3682 0013118 292.9443 67.0393 14.95251701128029 RANGE-B 1 43772U 18099Q 21098.16109049 .00000626 00000-0 61593-4 0 9992 2 43772 97.6785 170.7743 0012499 280.7713 79.2101 14.95536617127950 RANGE-A 1 43773U 18099R 21098.78898088 .00000227 00000-0 25830-4 0 9990 2 43773 97.6634 169.8913 0012032 278.2341 81.7515 14.95162289128031 MOVE-II 1 43780U 18099Y 21098.50933810 .00000202 00000-0 23199-4 0 9990 2 43780 97.6717 170.6832 0012003 290.3597 69.6334 14.95816035128014 SNUSat 2 1 43782U 18099AA 21098.16316970 .00000257 00000-0 28338-4 0 9996 2 43782 97.6701 170.2043 0011147 280.1119 79.8845 14.95502094127964 SnugLite 1 43784U 18099AC 21098.64561841 -.00000004 00000-0 48269-5 0 9997 2 43784 97.6662 170.4215 0013622 286.3382 73.6341 14.95618628128050 ITASat 1 1 43786U 18099AE 21098.45364380 .00000139 00000-0 17700-4 0 9990 2 43786 97.6717 170.8010 0013728 286.1698 73.8012 14.95555243128022 EAGLET 1 1 43790U 18099AJ 21098.43792876 -.00000168 00000-0 -99078-5 0 9991 2 43790 97.6710 171.1695 0012018 291.7437 68.2505 14.95926040127747 ESEO 1 43792U 18099AL 21098.41252937 .00000608 00000-0 59675-4 0 9995 2 43792 97.6677 170.7900 0011696 287.9679 72.0266 14.95712359127799 CSIM 1 43793U 18099AM 21098.74278401 .00001162 00000-0 10735-3 0 9995 2 43793 97.6700 171.3897 0011180 280.8033 79.1930 14.96471368127848 Astrocast 0.1 1 43798U 18099AS 21098.26328721 .00000482 00000-0 47980-4 0 9995 2 43798 97.6708 171.1684 0010953 267.8322 92.1645 14.96089542128024 JO-97 1 43803U 18099AX 21098.16113757 .00000418 00000-0 42584-4 0 9996 2 43803 97.6684 170.2755 0013499 287.7328 72.2420 14.95790850127982 Suomi 100 1 43804U 18099AY 21098.16534202 .00000184 00000-0 21647-4 0 9996 2 43804 97.6680 170.2517 0013644 287.8795 72.0938 14.95765196127994 Al Farabi 2 1 43805U 18099AZ 21098.51071246 -.00000211 00000-0 -13678-4 0 9998 2 43805 97.6690 170.7784 0013646 286.4895 73.4826 14.95960845128052 CHOMPTT 1 43855U 18104G 21098.38822103 .00001559 00000-0 62815-4 0 9992 2 43855 85.0384 339.9544 0018992 49.9417 310.3488 15.23775394128425 ISAT 1 43879U 18111D 21098.72761954 -.00000170 00000-0 -98335-5 0 9997 2 43879 97.6886 7.2042 0013149 343.4849 16.5955 14.96549962122624 UWE-4 1 43880U 18111E 21098.19194358 .00000062 00000-0 10509-4 0 9992 2 43880 97.6909 7.1117 0012041 346.1446 13.9444 14.96791300124572 Sparrow 1 43881U 18111F 21098.23210185 .00001029 00000-0 94718-4 0 9993 2 43881 97.6923 7.2691 0011953 345.3987 14.6888 14.96847734124583 Lume 1 1 43908U 18111AJ 21098.49916939 .00001540 00000-0 62341-4 0 9996 2 43908 97.2407 355.4299 0020647 174.4477 185.6994 15.25979693127003 FO-98 1 43933U 19003B 21098.07456723 .00010572 00000-0 42161-3 0 9991 2 43933 97.1917 142.1632 0014706 282.2189 77.7402 15.25266957123378 FO-99 1 43937U 19003F 21098.07494478 .00001777 00000-0 72643-4 0 9990 2 43937 97.1853 144.0574 0021566 261.3201 98.5595 15.25440271123537 MYSat 1 1 44045U 18092F 21098.30465930 .00005451 00000-0 14780-3 0 9995 2 44045 51.6389 48.3234 0009994 315.3165 44.7013 15.39226646120657 AstroCast 0.2 1 44083U 19018F 21098.70543750 .00001509 00000-0 68453-4 0 9994 2 44083 97.3801 161.0776 0012113 210.4283 149.6252 15.22298876112288 AISTechSat 3 1 44103U 19018AB 21098.75124809 .00001081 00000-0 47662-4 0 9996 2 44103 97.3665 161.4766 0011874 224.0432 284.1087 15.23872252112392 AISat 1 1 44104U 19018AC 21098.77895159 .00001259 00000-0 41718-4 0 9995 2 44104 97.4291 175.8546 0055504 242.5391 117.0200 15.31843940113002 Raavana-1 1 44329U 98067QE 21098.52219773 .00039557 00000-0 31370-3 0 9994 2 44329 51.6343 284.3140 0002991 16.8683 343.2414 15.70876116103143 Uguisu 1 44330U 98067QF 21098.05524410 .00041177 00000-0 33131-3 0 9999 2 44330 51.6326 287.1203 0002980 16.0648 344.0444 15.70509237103046 NepaliSat-1 1 44331U 98067QG 21098.51497064 .00039463 00000-0 31364-3 0 9996 2 44331 51.6322 284.1891 0002874 21.0769 339.0347 15.70824612103138 Prox-1 1 44339U 19036A 21098.27162574 .00001184 00000-0 22879-3 0 9991 2 44339 24.0010 56.1848 0011725 133.3316 226.8154 14.53473653 94978 Oculus-ASR 1 44348U 19036K 21098.73598809 .00017797 00000-0 24511-3 0 9998 2 44348 28.5146 237.1357 0336828 233.3811 123.5353 15.10320470 98350 Armadillo 1 44352U 19036P 21098.50860948 .00023089 00000-0 30081-3 0 9994 2 44352 28.5302 222.2224 0309925 256.0808 100.5133 15.16880439 98435 NO-104 1 44354U 19036R 21098.70047588 .00017829 00000-0 23981-3 0 9991 2 44354 28.5300 231.5021 0332171 240.6822 116.0194 15.11739440 98391 NO-103 1 44355U 19036S 21098.50437226 .00030915 00000-0 35627-3 0 9993 2 44355 28.5271 198.3044 0278559 294.8305 62.3564 15.25615603 98719 CP9 1 44360U 19036X 21098.46371507 .00072723 -50027-5 56835-3 0 9990 2 44360 28.5055 148.8259 0217965 17.2052 343.5801 15.44762633 99089 Move-IIb 1 44398U 19038N 21098.82604827 .00001641 00000-0 95139-4 0 9999 2 44398 97.5756 63.1831 0023912 186.0382 174.0569 15.13387108 97236 SONATE 1 44400U 19038Q 21098.78289666 .00000328 00000-0 22604-4 0 9996 2 44400 97.5827 63.0671 0024491 186.2693 173.8234 15.12425866 97206 BeeSat 9 1 44412U 19038AC 21097.84589783 .00001225 00000-0 72693-4 0 9998 2 44412 97.5809 62.3597 0021720 193.2272 166.8392 15.13074095 96774 JAISAT-1 1 44419U 19038F 21098.82991064 .00001202 00000-0 70486-4 0 9996 2 44419 97.5814 63.8300 0020751 187.9530 172.1375 15.13560658 97266 LightSail-2 1 44420U 19036AC 21098.24598278 .00009507 00000-0 19112-2 0 9995 2 44420 24.0081 40.1824 0022540 146.4565 213.7359 14.59486842 93287 Taurus 1 1 44530U 19059C 21098.77023976 .00000678 00000-0 20284-3 0 9991 2 44530 98.5503 188.5321 0012878 359.9271 0.1909 14.45980196 83016 Duchifat 3 1 44854U 19089C 21098.54022398 .00000461 00000-0 43260-4 0 9995 2 44854 36.9645 154.0593 0009283 295.5567 64.4211 14.99411086 72604 OPS-SAT 1 44878U 19092F 21098.44312307 .00001556 00000-0 83524-4 0 9999 2 44878 97.4743 282.9678 0015119 57.0545 303.2139 15.16332553 72220 TO-108 1 44881U 19093C 21098.76321506 .00000070 00000-0 15736-4 0 9990 2 44881 97.9268 178.3398 0015552 154.4777 205.7200 14.81436341 70413 FloripaSat 1 1 44885U 19093G 21098.75563866 .00000336 00000-0 48798-4 0 9999 2 44885 97.9279 178.8134 0015177 162.6190 197.5537 14.82244678 70440 RS-44 1 44909U 19096E 21098.18429840 .00000014 00000-0 20636-4 0 9993 2 44909 82.5224 159.5048 0216245 257.3134 100.3716 12.79709323 59856 SwampSat-2 1 45115U 19071E 21098.35662443 .00042617 00000-0 80641-3 0 9999 2 45115 51.6384 3.6935 0008343 60.0838 300.0978 15.47921465 66568 HO-107 1 45119U 19071J 21098.13079171 .00003495 00000-0 11125-3 0 9991 2 45119 51.6436 17.7554 0011963 39.1630 321.0216 15.35308133 66366 Phoenix 1 45258U 98067RB 21098.23270677 .00010512 00000-0 15915-3 0 9991 2 45258 51.6404 319.9462 0005041 358.5328 1.5647 15.55260748 64279 AztechSat-1 1 45261U 98067RE 21098.04260563 .00025987 00000-0 30330-3 0 9997 2 45261 51.6378 314.1796 0004967 15.2892 344.8251 15.61434936 64362 QARMAN 1 45263U 98067RG 21098.64930573 .00018061 00000-0 23481-3 0 9994 2 45263 51.6395 314.4876 0005234 13.0594 347.0533 15.58843074 64448 Quetzal 1 1 45598U 98067RL 21097.90792938 .00015399 00000-0 21389-3 0 9990 2 45598 51.6407 321.5505 0002532 111.3777 248.7485 15.57211389 53554 BY70-2 1 45857U 20042B 21098.79607647 .00001151 00000-0 17104-3 0 9997 2 45857 97.9856 175.2695 0012785 83.0177 277.2475 14.76830225 41264 UPMSat 2 1 46276U 20061E 21098.27398681 .00000688 00000-0 38827-4 0 9992 2 46276 97.4366 173.4521 0000731 151.3158 208.8115 15.16363623 32905 AmicalSat 1 46287U 20061R 21098.74779042 .00000984 00000-0 63846-4 0 9998 2 46287 97.4918 173.5329 0002433 13.3010 346.8283 15.10341266 32825 SALSAT 1 46495U 20068K 21098.57720037 .00000548 00000-0 44761-4 0 9998 2 46495 97.6868 36.5097 0016463 312.8607 47.1246 15.03392283 28832 BY70-3 1 46839U 20079N 21098.76718800 .00002880 00000-0 92076-4 0 9991 2 46839 97.2444 174.0144 0009028 95.7635 56.5406 15.33205968 23527 SPOC 1 46921U 98067RR 21098.09481836 .00009954 00000-0 16371-3 0 9999 2 46921 51.6430 326.5532 0002555 163.3015 196.8060 15.53030941 23922 Bobcat-1 1 46922U 98067RS 21097.91608704 .00012906 00000-0 20187-3 0 9996 2 46922 51.6438 326.8689 0002327 166.0663 194.0392 15.54127372 23859 Neutron-1 1 46923U 98067RT 21098.74833131 .00008560 00000-0 14238-3 0 9994 2 46923 51.6428 323.4160 0002305 177.7579 182.3422 15.52923859 24045 CAPE 3 1 47309U 21002A 21098.74995570 .00000884 00000-0 52066-4 0 9997 2 47309 60.6815 192.4987 0030035 2.3758 357.7465 15.20513837 12282 AO-109 1 47311U 21002C 21098.63591272 .00000620 00000-0 39311-4 0 9995 2 47311 60.6865 192.5108 0025326 6.5381 353.6031 15.21431451 12254 MiTEE 1 1 47314U 21002F 21098.24483145 .00002112 00000-0 10100-3 0 9996 2 47314 60.6861 193.4136 0023327 354.7016 5.3821 15.22717769 12210 ExoCube 2 1 47319U 21002L 21098.26081778 .00001456 00000-0 76606-4 0 9993 2 47319 60.6860 194.0669 0027296 9.1771 350.9808 15.21067498 12153 UVSQ-SAT 1 47438U 21006AB 21098.47899963 .00001000 00000-0 60314-4 0 9999 2 47438 97.4946 160.9357 0012204 347.0116 13.0799 15.12979568 11474 YUSAT 1 1 47439U 21006AC 21098.41427765 .00001056 00000-0 63498-4 0 9998 2 47439 97.4947 160.8702 0012077 347.6037 12.4895 15.12953397 11466 SOMP 2b 1 47445U 21006AJ 21098.42005628 .00000966 00000-0 58596-4 0 9998 2 47445 97.4919 160.8313 0011953 351.3179 8.7843 15.12828452 11465 IDEASSat 1 47458U 21006AX 21098.22818928 .00000976 00000-0 59388-4 0 9996 2 47458 97.5008 160.7207 0010997 350.7168 9.3858 15.12690956 11434 RSP-01 1 47925U 98067SB 21098.00429280 .00008317 00000-0 15272-3 0 9991 2 47925 51.6439 329.6840 0002948 132.0763 228.0477 15.50154841 3843 TAUSAT-1 1 47926U 98067SC 21098.19344938 .00012678 00000-0 22578-3 0 9990 2 47926 51.6438 328.6978 0004220 135.1518 224.9813 15.50495229 3860 Tsuru 1 47927U 98067SD 21098.19779597 .00009091 00000-0 16629-3 0 9999 2 47927 51.6437 328.7265 0002980 129.9226 230.2025 15.50134584 3878 STARS-EC 1 47928U 98067SE 21098.26297202 .00008755 00000-0 16073-3 0 9995 2 47928 51.6433 328.4105 0005966 205.1654 154.9045 15.50079301 3862 Maya-2 1 47929U 98067SF 21097.93940001 .00007560 00000-0 13953-3 0 9998 2 47929 51.6439 330.0005 0003087 127.3932 232.7339 15.50159724 3794 OPUSAT-II 1 47930U 98067SG 21098.19745444 .00013364 00000-0 24032-3 0 9992 2 47930 51.6436 328.7244 0003146 126.6556 233.4723 15.50167838 3871 GuaraniSat-1 1 47931U 98067SH 21098.64832926 .00008507 00000-0 15586-3 0 9992 2 47931 51.6437 326.4857 0003094 128.9190 231.2075 15.50186797 3948 CubeSX-Sirius-HSE 1 47951U 21022V 21098.74367414 .00001134 00000-0 82614-4 0 9993 2 47951 97.5651 2.2787 0022045 185.3424 260.6167 15.05558712 2567 KSU-Cubesat 1 47954U 21022Y 21098.74242539 .00001069 00000-0 77941-4 0 9990 2 47954 97.5654 2.2822 0021563 184.2208 261.6848 15.05667120 2285 DIY-1 1 47963U 21022AH 21098.72886483 .00001993 00000-0 13712-3 0 9991 2 47963 97.5646 2.2958 0019418 177.7993 267.6944 15.06895187 1391 SMOG 1 47964U 21022AJ 21098.78599822 .00000948 00000-0 67418-4 0 9998 2 47964 97.5644 2.3515 0019612 178.0444 217.8813 15.06890530 1389 /EX
